Theta_e
334 335 332 331 332 333 332 331 331 331 332 332 330 332 331 333 333 334 334 334 334 334 334 334 335 334 334 334 335 330 335 337 337 338 338 336 335 336 335 334 334 332
332 332 332 333 334 333 334 334 333 332 332 332 331 331 333 333 334 334 334 333 333 333 333 334 335 334 333 333 333 332 334 337 337 335 337 337 336 337 335 334 334 335
333 332 333 334 333 334 334 334 334 333 332 331 333 333 333 334 335 334 334 333 331 331 332 332 333 332 331 332 332 331 331 331 331 333 334 335 336 337 336 336 334 335
334 334 334 335 335 332 333 333 332 332 332 332 332 333 333 334 335 333 333 331 330 330 331 332 332 331 330 330 331 330 330 330 330 332 332 332 334 335 336 336 335 333
335 335 336 336 335 332 333 331 331 331 332 332 333 333 332 333 333 332 331 330 330 328 329 330 331 331 330 330 330 329 329 328 329 330 329 330 331 333 335 336 333 333
336 335 336 335 333 331 331 330 330 332 331 332 332 331 331 332 331 331 330 330 328 326 326 328 330 329 329 329 329 328 327 327 328 328 326 327 328 332 332 333 334 333
335 335 335 334 331 330 331 330 331 331 331 332 332 331 330 330 330 330 330 329 327 325 324 327 328 328 329 329 328 326 326 326 325 325 324 325 327 328 328 332 332 331
334 336 334 333 331 330 330 329 330 330 332 331 331 331 331 329 330 329 329 329 326 324 324 325 328 327 327 327 325 325 326 325 325 323 323 325 327 325 326 326 329 331
336 335 334 331 330 330 330 329 330 331 332 331 330 330 331 331 330 330 329 328 325 324 322 324 327 326 327 326 326 325 323 324 324 324 325 325 325 325 324 326 325 326
334 334 333 331 330 329 329 331 331 331 331 330 330 330 329 330 330 329 328 327 325 322 321 323 326 326 325 325 324 323 322 322 322 325 324 324 324 324 324 325 325 325
334 335 333 330 330 329 330 331 332 330 330 328 329 328 329 329 328 327 326 326 325 321 320 322 325 325 324 324 324 324 322 321 321 322 324 323 324 324 327 325 325 325
333 332 331 331 329 330 330 330 331 329 329 329 326 325 328 328 324 325 324 324 323 321 320 320 323 324 323 323 322 322 322 321 321 323 323 323 323 323 323 324 325 324
330 331 332 331 330 329 330 330 330 330 328 327 326 326 326 325 324 325 325 324 322 321 320 320 320 322 324 324 322 322 321 322 323 323 323 324 322 322 323 323 323 323
333 334 334 330 329 329 329 329 329 329 329 328 327 325 323 323 322 323 324 322 322 321 321 321 321 320 322 322 321 323 323 323 323 323 322 322 323 322 323 323 323 323
331 333 334 332 329 328 326 327 327 329 329 328 327 324 323 322 322 323 322 322 322 322 320 322 322 326 319 317 324 322 323 323 323 321 322 322 322 322 323 323 323 323
330 331 332 332 330 328 327 327 327 328 329 328 326 324 324 322 322 323 322 324 321 322 322 328 322 317 302 297 299 315 323 322 323 323 322 322 322 322 322 323 324 325
328 328 329 329 329 328 328 327 327 327 326 325 324 324 325 324 324 321 321 323 323 324 325 321 315 306 294 293 294 294 314 325 323 324 323 323 323 323 322 322 324 323
326 326 326 327 328 327 326 326 326 324 324 324 324 324 324 325 324 325 326 327 325 323 321 317 312 299 292 294 294 293 296 317 325 323 322 322 322 321 322 323 322 323
323 323 323 324 323 323 324 324 324 324 324 324 324 326 327 326 325 326 324 321 318 315 313 310 308 294 293 293 294 293 294 305 323 325 324 322 322 322 322 323 324 324
322 321 321 321 321 320 319 318 318 317 319 321 322 321 321 322 324 324 321 316 312 310 306 304 301 295 292 292 293 292 293 297 323 325 325 324 322 322 323 323 324 324
318 318 318 317 316 316 315 315 316 315 315 315 318 319 318 318 318 318 315 311 309 307 303 300 296 291 292 292 292 292 292 296 326 326 324 324 324 324 325 327 328 328
315 315 316 314 314 315 314 313 313 313 312 313 314 315 316 316 316 317 315 311 309 306 304 301 297 291 291 291 292 291 292 315 326 325 323 323 325 327 327 328 327 327
312 311 310 309 311 312 311 313 313 314 314 313 312 311 312 312 311 312 313 311 308 306 303 300 298 293 291 291 292 291 298 321 324 322 321 325 327 327 328 328 328 329
306 307 308 309 309 309 308 308 310 311 312 313 313 312 310 310 310 310 311 311 309 307 304 301 299 294 291 291 292 291 295 315 320 321 323 322 324 327 327 326 326 315
304 303 304 304 305 306 307 306 306 307 309 310 310 310 309 309 308 308 308 308 309 310 309 306 302 298 292 291 291 291 299 314 316 317 319 320 319 319 321 321 323 310
304 303 302 302 301 303 304 305 306 306 305 305 306 307 306 305 304 305 305 306 305 306 307 308 305 300 295 291 291 292 292 306 312 310 309 311 313 312 313 315 316 317
Wind_Speed
9 6 5 3 7 6 6 6 6 7 6 6 5 6 6 5 7 6 5 4 3 3 3 3 3 3 2 2 2 4 3 4 4 5 5 5 5 6 5 5 3 2
10 9 6 4 6 6 5 5 6 6 6 5 5 6 6 6 7 6 5 5 5 4 3 3 3 3 4 3 2 3 3 3 4 4 5 5 4 5 4 7 5 3
10 10 7 5 6 7 7 6 6 6 6 6 6 6 7 7 6 7 6 6 5 4 3 3 3 3 3 4 3 3 3 4 3 3 3 4 4 4 5 5 6 5
11 11 10 6 6 8 7 7 8 6 6 6 6 6 6 6 6 7 7 5 5 4 3 4 4 4 4 5 4 4 4 4 4 4 4 4 3 4 5 5 5 6
12 10 9 7 6 9 7 8 8 7 7 7 6 6 6 7 7 8 6 6 5 4 4 4 4 3 4 5 5 4 4 4 5 4 3 3 3 4 5 5 6 6
12 11 10 7 7 8 9 8 8 8 8 8 7 6 7 7 7 7 7 6 6 5 5 5 5 5 5 5 5 5 5 5 4 5 5 4 4 3 4 6 6 6
13 12 11 9 9 11 9 9 8 9 7 7 7 6 7 7 7 7 7 7 7 6 6 6 6 6 5 5 5 5 4 4 5 4 4 5 4 4 4 4 6 6
13 11 11 9 10 10 9 10 9 8 8 7 7 7 7 7 8 7 7 7 7 7 6 6 6 6 6 6 6 5 5 4 4 5 4 6 5 5 5 4 5 7
12 12 11 12 10 11 10 10 9 9 8 8 7 7 7 7 7 7 7 7 7 6 6 7 7 7 6 6 6 6 6 4 3 3 5 4 6 6 6 6 7 7
11 11 12 12 12 11 12 11 10 9 8 7 7 7 7 6 7 7 7 7 7 6 6 7 7 7 7 6 7 7 6 5 4 5 5 5 6 8 7 5 7 7
12 11 11 14 12 11 12 10 10 9 8 8 7 7 7 6 5 6 7 7 6 7 7 7 7 7 7 7 6 5 6 6 6 6 6 6 5 7 8 7 6 6
8 6 8 12 14 12 12 10 10 10 8 8 7 7 6 5 7 6 7 7 7 7 7 7 8 7 7 7 7 6 5 6 6 6 6 4 5 5 7 7 7 7
14 12 12 12 11 11 10 10 9 9 8 8 8 8 7 7 7 7 6 7 7 6 7 7 7 7 6 6 7 6 6 6 5 6 5 5 5 5 5 5 6 6
9 9 9 11 10 11 10 10 9 9 8 7 7 7 7 7 7 7 6 6 6 6 6 6 6 7 7 7 7 6 6 5 5 5 5 5 4 5 4 4 4 5
9 8 7 10 11 11 11 11 10 9 8 8 7 6 5 6 6 6 6 5 6 6 6 6 5 6 8 7 4 7 7 6 6 6 6 5 5 5 5 4 5 5
11 9 8 9 10 11 11 10 10 9 8 8 8 6 5 6 6 5 5 5 6 6 6 7 8 6 9 9 8 6 2 6 5 6 6 6 5 5 5 4 4 5
10 10 9 9 8 9 10 10 10 9 8 7 7 7 4 4 4 6 5 6 6 6 9 7 6 6 13 12 13 12 8 2 6 4 5 4 4 5 5 5 3 4
9 10 10 9 8 9 9 8 8 9 8 8 7 7 5 4 4 5 7 8 10 9 8 7 6 12 12 13 13 13 9 7 2 4 4 3 4 4 4 4 5 4
10 11 11 10 10 10 8 8 10 11 9 9 9 7 7 6 5 6 8 8 8 9 8 7 6 11 11 11 11 11 12 9 5 1 3 4 3 4 4 3 3 4
8 11 12 12 9 8 8 7 7 9 9 7 8 8 8 8 8 8 8 8 8 8 7 5 5 9 10 9 8 9 10 9 5 5 3 3 2 3 3 4 4 4
9 9 10 8 8 8 8 7 8 7 8 5 6 7 7 7 6 7 7 6 6 6 6 5 4 9 8 9 9 9 9 7 5 4 4 4 4 4 5 4 4 4
9 9 10 8 7 8 8 8 7 6 6 6 7 6 6 6 6 6 7 6 5 6 5 6 5 10 9 11 11 11 10 5 6 5 5 5 4 4 4 4 5 5
9 9 9 9 8 8 8 8 8 6 6 5 7 6 6 6 6 5 6 6 6 5 5 5 6 9 9 11 14 17 11 6 5 6 6 4 4 3 3 4 3 4
10 9 8 8 9 9 8 7 7 6 7 5 7 7 7 6 5 6 6 6 6 6 4 3 3 7 16 19 18 17 11 7 5 5 3 4 4 2 3 3 7 9
9 10 9 9 10 9 8 8 7 7 6 6 7 7 6 5 5 5 6 6 5 5 5 5 7 11 16 16 16 13 11 6 5 4 2 3 4 3 3 4 4 9
9 10 10 9 9 9 8 8 7 7 7 6 6 5 6 5 5 5 6 5 4 5 5 6 7 8 10 13 13 13 13 8 5 5 5 5 4 5 5 5 4 5
Wind_Direction
157 149 174 179 230 188 189 186 181 177 192 177 171 171 170 162 158 166 148 151 131 132 128 131 132 146 155 152 177 168 193 158 170 169 160 181 170 178 155 158 196 218
158 164 160 200 232 177 183 185 182 179 188 178 170 165 162 153 160 160 153 141 152 140 137 141 144 155 165 151 183 150 169 179 162 166 166 176 163 170 167 148 186 197
160 161 153 202 203 175 175 188 181 183 176 182 156 171 161 156 162 160 155 170 150 131 144 142 144 164 149 138 160 158 153 153 149 141 161 160 160 172 152 160 171 158
160 161 164 180 204 177 175 184 176 183 170 171 163 163 152 161 168 161 167 170 129 147 154 149 164 174 164 142 151 144 144 150 147 161 154 152 175 158 157 171 165 161
162 162 156 159 192 179 166 185 171 176 168 166 157 153 163 161 175 164 169 152 138 157 157 165 170 153 143 159 150 143 162 140 155 169 151 150 165 164 165 170 164 170
162 162 158 163 171 174 170 178 173 168 173 162 161 164 166 165 174 167 156 154 155 155 164 169 167 159 177 149 154 155 161 160 148 154 152 156 152 180 173 167 166 157
165 163 158 168 174 168 170 174 174 168 170 164 163 174 162 173 173 162 165 161 158 161 166 173 164 171 161 161 155 163 152 144 169 157 145 131 130 148 165 158 154 146
165 156 156 165 165 162 171 173 178 167 168 175 171 178 171 178 172 165 165 174 157 167 162 168 173 165 164 165 160 148 145 174 163 174 142 121 140 132 130 152 155 142
160 161 160 160 164 163 175 174 176 164 170 179 172 179 181 183 170 166 168 174 163 162 167 166 178 164 169 168 148 154 165 168 170 140 122 130 135 135 144 139 142 129
164 169 161 163 167 168 173 176 171 163 171 170 181 180 178 187 161 173 168 172 166 164 161 172 170 167 171 166 163 168 166 162 166 153 163 166 149 146 136 135 132 139
177 167 165 162 170 163 168 170 162 163 166 171 170 180 171 177 158 177 172 169 167 170 160 173 165 173 173 170 164 167 171 166 174 173 175 172 161 138 143 144 145 150
148 166 177 172 166 157 164 167 163 162 168 158 165 176 163 173 177 176 177 168 170 178 162 165 173 177 174 167 160 167 159 171 172 170 175 151 129 147 147 147 160 149
159 183 171 167 155 156 160 161 157 154 161 156 169 168 165 179 178 168 183 169 174 174 165 167 167 174 168 166 163 162 161 160 154 169 156 149 170 155 140 147 154 145
145 153 154 155 155 151 159 156 157 157 159 154 156 156 165 177 175 172 172 180 167 166 164 161 147 174 166 169 169 154 160 156 162 164 161 155 166 150 140 159 148 143
139 136 148 150 150 154 163 161 160 162 155 152 147 146 174 170 172 170 174 177 144 167 144 151 138 55 33 7 341 162 160 169 162 174 159 163 157 149 153 161 159 148
137 130 137 145 152 153 157 154 155 152 150 147 142 142 160 158 168 159 170 160 153 152 125 64 46 46 6 5 21 1 269 172 177 168 177 163 186 152 176 180 163 152
138 138 125 125 133 145 147 153 152 152 150 146 149 137 138 134 153 154 158 166 163 101 69 69 50 21 359 11 6 10 354 345 169 170 190 172 188 174 174 190 185 182
137 135 127 118 126 127 125 112 116 121 116 107 97 103 115 129 117 77 50 56 59 67 62 51 61 18 7 9 6 3 5 343 256 167 190 198 192 208 200 193 200 200
88 94 97 96 94 81 72 97 108 111 103 85 78 75 80 88 97 82 69 62 61 59 54 46 42 14 5 7 6 3 357 344 311 299 209 209 215 230 245 239 222 216
78 104 106 99 92 92 84 69 67 72 65 67 73 67 65 68 73 72 69 68 71 72 63 47 33 12 3 9 10 356 357 335 301 299 290 275 258 252 265 278 278 271
75 82 86 80 75 79 77 69 68 66 64 51 63 67 70 73 69 71 67 60 74 87 90 64 47 7 15 16 14 0 355 319 276 279 261 262 265 268 259 266 264 267
76 82 88 84 80 84 87 87 73 81 89 81 77 73 73 69 56 72 93 85 72 78 75 68 40 14 21 31 19 9 345 301 278 262 261 264 260 246 249 249 254 251
63 70 67 71 69 71 78 86 97 102 101 92 83 84 84 81 82 73 88 101 95 75 70 61 42 9 14 36 30 16 4 320 297 278 262 255 256 270 267 267 295 334
44 56 65 71 73 76 71 62 62 58 66 91 107 110 101 97 97 94 88 85 83 88 101 125 109 29 28 32 29 14 351 311 299 288 315 308 300 304 314 321 45 25
59 60 59 62 71 71 65 64 61 63 66 70 75 77 68 60 73 80 77 74 73 78 58 68 58 39 31 32 26 17 359 327 345 333 326 14 351 338 354 342 91 62
68 70 65 61 61 60 63 69 70 69 65 65 70 79 86 87 64 70 70 51 42 47 39 40 63 57 41 33 29 18 8 352 13 12 17 5 358 352 330 339 354 95